This is the latest recevied weather packets stored in our database for station/object N5WAY-13. If no packets are shown the sender has not sent any weather packets the latest 10 day(s).
| Time | Temp. | Humidity | Pressure | Rain* | Wind** | Luminosity | Snow |
|---|---|---|---|---|---|---|---|
| 1778025917 | 18.33° C | 39% | 1010.1 hPa | 0 mm | - | 365 W/m² | - |
| 1778022938 | 17.22° C | 42% | 1010.4 hPa | 0 mm | - | 492 W/m² | - |
| 1778022318 | 16.67° C | 47% | 1010.6 hPa | 0 mm | - | 593 W/m² | - |
| 1778017516 | 16.11° C | 48% | 1011.5 hPa | 0 mm | - | 327 W/m² | - |
| 1778015717 | 16.11° C | 46% | 1011.5 hPa | 0 mm | - | 300 W/m² | - |
| 1778013317 | 16.11° C | 45% | 1011.9 hPa | 0 mm | - | 872 W/m² | - |
| 1778011518 | 15° C | 48% | 1012.3 hPa | 0 mm | - | 619 W/m² | - |
| 1778003116 | 15.56° C | 43% | 1012.5 hPa | 0 mm | - | 565 W/m² | - |
| 1777999517 | 13.89° C | 45% | 1012.6 hPa | 0 mm | - | 725 W/m² | - |
| 1777996518 | 12.22° C | 53% | 1013.1 hPa | 0 mm | - | 211 W/m² | - |
| 1777994715 | 12.22° C | 53% | 1013.5 hPa | 0.25 mm | - | 304 W/m² | - |
| 1777991716 | 12.78° C | 54% | 1013.7 hPa | 0 mm | - | 106 W/m² | - |
| 1777990516 | 12.78° C | 54% | 1013.6 hPa | 0 mm | - | 76 W/m² | - |
| 1777986337 | 13.89° C | 37% | 1012.7 hPa | 0 mm | - | 39 W/m² | - |
| 1777980915 | 14.44° C | 36% | 1012.1 hPa | 0 mm | - | 0 W/m² | - |
| 1777977917 | 14.44° C | 34% | 1012.5 hPa | 0 mm | - | 0 W/m² | - |
| 1777977337 | 14.44° C | 35% | 1012.5 hPa | 0 mm | - | 0 W/m² | - |
| 1777974317 | 15° C | 34% | 1012.2 hPa | 0 mm | - | 0 W/m² | - |
| 1777973118 | 15° C | 32% | 1012.3 hPa | 0 mm | - | 0 W/m² | - |
| 1777971316 | 15.56° C | 33% | 1012.4 hPa | 0 mm | - | 0 W/m² | - |
| 1777967736 | 16.67° C | 31% | 1013 hPa | 0 mm | - | 0 W/m² | - |
| 1777966516 | 16.67° C | 30% | 1012.8 hPa | 0 mm | - | 0 W/m² | - |
| 1777964737 | 17.78° C | 28% | 1012.6 hPa | 0 mm | - | 0 W/m² | - |
| 1777961718 | 18.33° C | 26% | 1012.1 hPa | 0 mm | - | 0 W/m² | - |
| 1777956316 | 19.44° C | 24% | 1011.8 hPa | 0 mm | - | 0 W/m² | - |
* Rain latest hour (hover to see other rain measurements)
** Current wind speed in m/s (hover to see current wind gust speed)